Content
SEND FEEDBACK

Daily
Averages
Monthly
Summary
United States of America

KAUFFMAN, COLORADO


Home > North America > United States > Colorado
Elevation: 4946 feet     Latitude: 40 51N     Longitude: 103 54W

WEATHER
 
SELECT A DAY
Number of Records: 284,680;   Date Range: 3/12/03 - 9/30/14
 
SHARE

PRINT THIS DATA

[ ← Previous Day ]
WEATHER ALMANAC - JANUARY 23, 2013
[ Next Day → ]
[ °C ]   °F
Weather ElementAverageHighLow
Temperature38.6 °F58.5 °F (2:55 pm)22.6 °F (11:55 pm)
Dewpoint5.8 °F19.4 °F (10:35 pm)-3.3 °F (9:15 am)
Humidity31.2 %83 % (11:55 pm)11 % (11:55 am)
Barometer30.11 in30.16 in (11:35 pm)30.06 in (5:55 am)
Wind Speed9.5 mph15 mph (12:55 am)
Wind Gust16.1 mph (11:55 am)
Weather ElementAverage
Visibility10 mi
Wind DirectionSW (221.6 °)

Weather ElementTotal
Precipitation---
Heating Degree Days24.5 (Base 65)
Averaged from 69 records on January 23, 2013
WEATHER CONDITIONS BREAKOUT
WIND DIRECTION BREAKOUT
WEATHER BY HOUR - JANUARY 23, 2013
[ °C ]   °F
Local TimeTemperatureDewpointHumidityBarometerVisibilityWind DirectionWind SpeedGust SpeedPrecipitationEventsConditions
12:35 AM32.7 °F2.3 °F28 %30.10 in10.0 miWSW (250°)13.8 mphClear
12:55 AM33.8 °F1.9 °F26 %30.10 in10.0 miWSW (250°)15.0 mphClear
1:35 AM31.3 °F2.7 °F30 %30.09 in10.0 miWSW (250°)12.7 mphClear
1:55 AM30.6 °F3.9 °F32 %30.08 in10.0 miWest (260°)9.2 mphClear
2:15 AM26.1 °F3.2 °F38 %30.09 in10.0 miWNW (290°)9.2 mphClear
2:35 AM28.0 °F3.2 °F35 %30.08 in10.0 miWest (280°)9.2 mphClear
2:55 AM27.5 °F4.8 °F38 %30.08 in10.0 miWest (270°)9.2 mphClear
3:40 AM30.2 °F6.8 °F37 %30.08 in10.0 miWest (270°)11.5 mphClear
3:55 AM30.2 °F4.6 °F34 %30.08 in10.0 miWest (270°)11.5 mphClear
4:15 AM31.8 °F4.5 °F32 %30.08 in10.0 miWest (260°)12.7 mphClear
4:18 AM32.0 °F3.2 °F30 %30.08 in10.0 miWest (260°)13.8 mphClear
4:35 AM33.3 °F4.8 °F30 %30.07 in10.0 miWest (260°)15.0 mphClear
4:55 AM35.1 °F2.8 °F26 %30.07 in10.0 miWest (270°)11.5 mphClear
5:15 AM28.4 °F2.5 °F33 %30.07 in10.0 miWNW (290°)8.1 mphClear
5:35 AM26.8 °F2.7 °F36 %30.07 in10.0 miWest (270°)11.5 mphClear
5:55 AM37.2 °F-1.7 °F19 %30.06 in10.0 miWest (270°)15.0 mphClear
6:15 AM36.5 °F-2.2 °F19 %30.06 in10.0 miWest (270°)12.7 mphClear
6:35 AM32.4 °F-1.5 °F24 %30.07 in10.0 miWest (270°)12.7 mphClear
6:55 AM32.2 °F-0.8 °F25 %30.07 in10.0 miWest (280°)9.2 mphClear
7:15 AM27.5 °F-0.2 °F30 %30.08 in10.0 miWest (270°)8.1 mphClear
7:35 AM26.6 °F-0.4 °F31 %30.08 in10.0 miWNW (290°)10.4 mphClear
7:55 AM26.4 °F-0.9 °F31 %30.08 in10.0 miWest (270°)4.6 mphClear
8:15 AM25.3 °F-1.1 °F32 %30.08 in10.0 miWNW (290°)8.1 mphClear
8:35 AM35.2 °F-1.5 °F21 %30.08 in10.0 miNW (310°)10.4 mphClear
8:55 AM37.2 °F-1.8 °F19 %30.08 in10.0 miWNW (300°)12.7 mphClear
9:15 AM43.3 °F-3.3 °F14 %30.08 in10.0 miNW (320°)10.4 mphClear
9:35 AM44.4 °F-2.0 °F14 %30.09 in10.0 miNW (310°)10.4 mphClear
9:55 AM43.9 °F-1.7 °F15 %30.10 in10.0 miNW (320°)9.2 mphClear
10:15 AM48.2 °F-0.4 °F13 %30.11 in10.0 miNW (320°)9.2 mphClear
10:35 AM47.3 °F0.1 °F14 %30.13 in10.0 miNW (310°)10.4 mphClear
10:55 AM50.2 °F0.5 °F13 %30.13 in10.0 miNW (320°)13.8 mphClear
11:15 AM52.0 °F0.3 °F12 %30.13 in10.0 miNW (310°)12.7 mphClear
11:35 AM53.4 °F1.0 °F12 %30.13 in10.0 miNW (310°)9.2 mphClear
11:55 AM54.9 °F1.0 °F11 %30.13 in10.0 miNW (320°)10.4 mph16.1 mphClear
12:15 PM54.7 °F1.0 °F11 %30.12 in10.0 miNW (320°)10.4 mphClear
12:35 PM55.0 °F1.4 °F11 %30.12 in10.0 miNW (320°)8.1 mphClear
12:55 PM55.9 °F2.3 °F11 %30.11 in10.0 miNW (310°)6.9 mphClear
1:15 PM56.8 °F3.0 °F11 %30.11 in10.0 miNNW (330°)9.2 mphClear
1:35 PM57.2 °F4.1 °F12 %30.10 in10.0 miNorth (360°)12.7 mphClear
1:55 PM56.5 °F4.1 °F12 %30.11 in10.0 miNNW (340°)9.2 mphClear
2:15 PM56.8 °F5.0 °F12 %30.10 in10.0 miNorth (360°)6.9 mphClear
2:35 PM56.1 °F5.2 °F13 %30.10 in10.0 miNNE (30°)5.8 mphClear
2:55 PM58.5 °F5.4 °F12 %30.10 in10.0 miNorth (10°)5.8 mphClear
3:15 PM57.0 °F5.7 °F13 %30.10 in10.0 miNorth (10°)6.9 mphClear
3:35 PM56.7 °F5.5 °F13 %30.10 in10.0 miNNE (20°)5.8 mphClear
3:55 PM55.9 °F5.7 °F13 %30.09 in10.0 miNNE (20°)8.1 mphClear
4:15 PM53.6 °F5.5 °F14 %30.10 in10.0 miEast (80°)9.2 mphClear
4:35 PM51.3 °F6.1 °F16 %30.10 in10.0 miESE (110°)5.8 mphClear
4:55 PM48.4 °F7.5 °F19 %30.11 in10.0 miESE (110°)9.2 mphClear
5:15 PM45.5 °F8.6 °F22 %30.12 in10.0 miSE (140°)9.2 mphClear
5:35 PM42.6 °F9.5 °F26 %30.12 in10.0 miSE (130°)5.8 mphClear
5:55 PM40.1 °F10.4 °F30 %30.12 in10.0 miSE (140°)6.9 mphClear
6:15 PM36.9 °F10.0 °F33 %30.12 in10.0 miESE (120°)4.6 mphClear
6:35 PM35.1 °F10.6 °F36 %30.13 in10.0 miEast (100°)6.9 mphClear
6:55 PM33.8 °F11.3 °F39 %30.13 in10.0 miESE (120°)4.6 mphClear
7:15 PM32.0 °F11.8 °F43 %30.13 in10.0 miESE (120°)5.8 mphClear
7:35 PM30.9 °F12.4 °F46 %30.13 in10.0 miSE (130°)8.1 mphClear
7:55 PM31.1 °F14.0 °F49 %30.14 in10.0 miSE (130°)8.1 mphClear
8:15 PM29.3 °F14.9 °F55 %30.14 in10.0 miSE (140°)8.1 mphClear
8:35 PM28.6 °F15.1 °F57 %30.14 in10.0 miEast (100°)3.5 mphClear
9:15 PM25.9 °F14.9 °F63 %30.14 in10.0 miSSE (160°)6.9 mphClear
9:35 PM28.9 °F18.5 °F65 %30.15 in10.0 miSSE (150°)8.1 mphClear
9:55 PM28.0 °F19.0 °F69 %30.15 in10.0 miSSE (160°)15.0 mphClear
10:15 PM27.0 °F19.2 °F73 %30.15 in10.0 miSSE (160°)9.2 mphClear
10:35 PM26.4 °F19.4 °F75 %30.15 in10.0 miSSE (160°)11.5 mphClear
10:55 PM25.5 °F19.4 °F78 %30.14 in10.0 miSouth (180°)11.5 mphClear
11:15 PM24.6 °F19.2 °F80 %30.14 in10.0 miSouth (170°)12.7 mphClear
11:35 PM23.4 °F18.5 °F82 %30.16 in10.0 miSSW (200°)3.5 mphClear
11:55 PM22.6 °F18.3 °F83 %30.15 in10.0 miSouth (190°)10.4 mphClear
Hourly data recorded from KIBM, located miles away from Kauffman, Colorado







STORIES FROM OUR PARTNERS